Simultaneous Nadir Overpasses (SNOs) Predictions

Prediction of SNOs between NOAA-19 and TERRA Satellite Orbit:

Table of predicted SNOs for the next 14.0 days since TLE Epoch: 4/6/2012
Index Date (NOAA-19) Time (NOAA-19) NOAA-19 Lat,Lon Date (TERRA) Time (TERRA) TERRA Lat,Lon Distance(km) Time Diff (sec)
1 04/08/2012 07:51:37 69.54, 60.55 04/08/2012 07:52:47 69.46, 61.77 48.02 70
2 04/08/2012 08:42:24 -68.94,-131.33 04/08/2012 08:42:25 -68.92,-131.31 2.67 1
3 04/08/2012 09:33:13 67.99, 37.16 04/08/2012 09:32:05 68.09, 35.32 77.62 68
4 04/10/2012 12:36:13 69.02, -9.88 04/10/2012 12:37:21 69.05, -9.88 3.48 68
5 04/10/2012 13:27:09 -68.92, 157.52 04/10/2012 13:26:52 -68.90, 157.55 2.18 17
6 04/12/2012 17:20:59 69.04, -81.10 04/12/2012 17:21:52 69.04, -81.02 2.88 53
7 04/12/2012 18:11:54 -68.90, 86.36 04/12/2012 18:11:23 -68.90, 86.42 2.71 31
8 04/14/2012 22:05:44 69.01,-152.25 04/14/2012 22:06:28 68.99,-152.24 2.06 44
9 04/14/2012 22:56:38 -68.84, 15.25 04/14/2012 22:55:59 -68.86, 15.22 2.02 39
10 04/17/2012 02:50:29 69.00, 136.59 04/17/2012 02:51:07 69.01, 136.62 2.32 38
11 04/17/2012 03:41:23 -68.84, -55.94 04/17/2012 03:40:39 -68.83, -55.98 2.53 44
12 04/19/2012 07:35:14 68.99, 65.41 04/19/2012 07:35:51 68.99, 65.41 0.36 37
13 04/19/2012 08:26:08 -68.86,-127.14 04/19/2012 08:25:22 -68.87,-127.11 1.74 46




NCC Satellite Simultaneous Nadir Overpasses (SNOs) Prediction Service

<
